Printer-friendly version
Follow the MPC on Twitter Follow the MPC on Facebook The MPC blog
Minor Planet Center

MPEC 2004-T41 : 2004 TV11

The following Minor Planet Electronic Circular may be linked-to from your own Web pages, but must not otherwise be redistributed electronically.

A form allowing access to any MPEC is at the bottom of this page.


Read MPEC 2004-T40 Read MPEC 2004-T42


M.P.E.C. 2004-T41                                Issued 2004 Oct. 10, 16:46 UT

     The Minor Planet Electronic Circulars contain information on unusual
         minor planets and routine data on comets.  They are published
   on behalf of Commission 20 of the International Astronomical Union by the
          Minor Planet Center, Smithsonian Astrophysical Observatory,
                          Cambridge, MA 02138, U.S.A.

                  Supported in part by the Brinson Foundation
             Prepared using the Tamkin Foundation Computer Network

                              MPC@CFA.HARVARD.EDU
          URL http://cfa-www.harvard.edu/iau/mpc.html  ISSN 1523-6714

                                   2004 TV11

Observations:
     K04T11V* C2004 10 09.26673 01 52 20.57 +09 46 15.7          20.6 V ET041691
     K04T11V  C2004 10 09.29382 01 52 21.02 +09 48 12.1          20.6 V ET041691
     K04T11V  C2004 10 09.32117 01 52 21.44 +09 50 08.2          20.6 V ET041691
     K04T11V tC2004 10 09.37985 01 52 22.37 +09 54 16.0          21.8 V ET041291
     K04T11V tC2004 10 09.38396 01 52 22.41 +09 54 33.5          22.0 V ET041291
     K04T11V tC2004 10 09.38783 01 52 22.47 +09 54 51.1          21.9 V ET041291
     K04T11V tC2004 10 09.48157 01 52 24.25 +10 01 23.2          21.6 V ET041291
     K04T11V tC2004 10 09.48568 01 52 24.32 +10 01 41.6          21.5 V ET041291
     K04T11V tC2004 10 09.48948 01 52 24.38 +10 01 57.2          21.6 V ET041291
     K04T11V HC2004 10 10.29000 01 52 56.53 +10 57 06.6          21.5 V ET041291
     K04T11V HC2004 10 10.29784 01 52 56.60 +10 57 38.7          21.0 V ET041291
     K04T11V HC2004 10 10.30606 01 52 56.81 +10 58 11.9          21.2 V ET041291
     K04T11V  C2004 10 10.38044 01 52 57.57 +11 03 12.7          20.7 R ET041651
     K04T11V  C2004 10 10.38406 01 52 57.58 +11 03 27.8          20.6 R ET041651
     K04T11V  C2004 10 10.38633 01 52 57.62 +11 03 37.2          20.7 R ET041651

Observer details:
291 LPL/Spacewatch II.  Observers M. Block, J. V. Scotti.  1.8-m f/2.7
    reflector + CCD.
651 Grasslands Observatory, Tucson.  Observer J. E. McGaha.  0.62-m f/5.1
    Newtonian reflector + CCD.
691 Steward Observatory, Kitt Peak.  Observer R. S. McMillan.  0.9-m f/3
    reflector + CCD.

Orbital elements:
2004 TV11
Epoch 2004 Oct. 2.0 TT = JDT 2453280.5                  MPC
M   5.90456              (2000.0)            P               Q
n   0.29479182     Peri.  330.19389     +0.98232433     +0.18212713
a   2.2359346      Node    19.45483     -0.13555675     +0.85140359
e   0.5119213      Incl.    7.45731     -0.12908630     +0.49187564
P   3.34           H   24.5           G   0.15
From 15 observations 2004 Oct. 9-10.

Ephemeris:
2004 TV11                a,e,i = 2.24, 0.51, 7                   q = 1.0913
Date    TT    R. A. (2000) Decl.     Delta      r     Elong.  Phase     V
2004 10 02    01 45.83   -00 24.1    0.121    1.116   161.5    16.6    21.0
2004 10 07    01 50.73   +06 56.7    0.135    1.130   165.2    13.0    21.2
2004 10 12    01 53.81   +12 47.9    0.151    1.146   167.9    10.5    21.4
2004 10 17    01 55.64   +17 19.4    0.171    1.165   169.6     8.9    21.6
2004 10 22    01 56.74   +20 44.7    0.193    1.186   170.1     8.3    21.9

Kyle E. Smalley              (C) Copyright 2004 MPC           M.P.E.C. 2004-T41

Read MPEC 2004-T40 Read MPEC 2004-T42


MPEC number:

Enter an MPEC number in one of the following forms:

  • 1997-B01 (the full form)
  • J97B01 (the packed version of the full form)
  • B01 (the abbreviated form)

Valid HTML 4.01!